Weather History for Renton, WA

Change the Weather History Date:

Sunday, January 22, 2012

  Actual Average Record
Temperature  
Mean Temperature 40 °F -  
Max Temperature 45 °F 46 °F - (-1)
Min Temperature 36 °F 37 °F - (-1)
Degree Days  
Heating Degree Days 24    
Moisture  
Dew Point 35 °F    
Average Humidity 79    
Maximum Humidity 93    
Minimum Humidity 57    
Precipitation  
Precipitation 0.11 in - - ()
Sea Level Pressure  
Sea Level Pressure 29.68 in    
Wind  
Wind Speed 4 mph (SE)    
Max Wind Speed 10 mph    
Max Gust Speed 23 mph    
Visibility 9 miles    
Events Rain    
Averages and records for this station are not official NWS values.
T = Trace of Precipitation, MM = Missing Value Source: NWS Daily Summary

Daily Weather History Graph

Daily Weather History Graph

Search for Another Location

Airport:

Trip Planner

Search our weather history database for the weather conditions in past years. The results will help you decide how hot, cold, wet, or windy it might be!

Date:

Astronomy

Jan. 22, 2012 Rise Set
Actual Time 7:46 AM PST 4:54 PM PST
Civil Twilight 7:12 AM PST 5:28 PM PST
Nautical Twilight 6:35 AM PST 6:06 PM PST
Astronomical Twilight 5:58 AM PST 6:42 PM PST
Moon 7:06 AM PST (1/22) 4:44 PM PST (1/22)
Length of Visible Light 10h 15m
Length of Day
9h 07m
Waning Crescent, 0% of the Moon is Illuminated
Jan 22
Waning Crescent
Jan 22
New
Jan 30
First Quarter
Feb 7
Full
Feb 14
Last Quarter

Hourly Weather History & Observations

Time (PST) Temp. Windchill Dew Point Humidity Pressure Visibility Wind Dir Wind Speed Gust Speed Precip Events Conditions
12:53 AM 37.0 °F - 32.0 °F 82% 29.90 in 10.0 mi Calm Calm - N/A   Partly Cloudy
1:53 AM 36.0 °F - 30.9 °F 82% 29.88 in 10.0 mi Calm Calm - N/A   Clear
2:53 AM 36.0 °F 33.3 °F 30.9 °F 82% 29.86 in 10.0 mi SSE 3.5 mph - N/A   Clear
3:53 AM 36.0 °F 33.3 °F 30.9 °F 82% 29.84 in 10.0 mi SSE 3.5 mph - N/A   Overcast
4:53 AM 37.0 °F 33.3 °F 30.0 °F 76% 29.80 in 10.0 mi SSE 4.6 mph - N/A   Scattered Clouds
5:53 AM 37.9 °F - 30.0 °F 73% 29.78 in 10.0 mi Calm Calm - N/A   Overcast
6:53 AM 39.0 °F 36.8 °F 28.9 °F 67% 29.73 in 10.0 mi SE 3.5 mph - N/A   Overcast
7:53 AM 42.8 °F 39.3 °F 28.4 °F 57% 29.66 in 10.0 mi Variable 5.8 mph - N/A   Overcast
8:53 AM 41.0 °F - 28.9 °F 62% 29.66 in 10.0 mi Calm Calm - N/A   Overcast
9:50 AM 41.0 °F 34.7 °F 33.8 °F 76% 29.60 in 6.0 mi East 10.4 mph 21.9 mph 0.02 in Rain Light Rain
9:53 AM 41.0 °F 35.2 °F 33.1 °F 73% 29.62 in 6.0 mi ESE 9.2 mph 20.7 mph 0.02 in Rain Light Rain
10:14 AM 39.2 °F 32.5 °F 33.8 °F 81% 29.58 in 7.0 mi ESE 10.4 mph 21.9 mph 0.00 in Rain Light Rain
10:53 AM 41.0 °F 35.2 °F 34.0 °F 76% 29.54 in 10.0 mi East 9.2 mph 23.0 mph 0.01 in Rain Light Rain
11:53 AM 44.1 °F 40.8 °F 30.9 °F 60% 29.48 in 10.0 mi SSE 5.8 mph - 0.00 in   Overcast
12:53 PM 44.6 °F 40.2 °F 33.8 °F 66% 29.45 in 8.0 mi SSE 8.1 mph 19.6 mph N/A Rain Light Rain
1:53 PM 43.0 °F 40.3 °F 35.1 °F 74% 29.46 in 9.0 mi ESE 4.6 mph 18.4 mph 0.02 in Rain Light Rain
2:53 PM 44.1 °F 40.1 °F 39.0 °F 82% 29.52 in 7.0 mi SE 6.9 mph - 0.03 in Rain Light Rain
3:53 PM 42.8 °F 41.1 °F 41.0 °F 93% 29.56 in 8.0 mi SE 3.5 mph - N/A Rain Light Rain
4:53 PM 45.0 °F 40.1 °F 39.9 °F 82% 29.61 in 9.0 mi SSE 9.2 mph - 0.01 in Rain Light Rain
5:20 PM 44.6 °F 40.7 °F 39.2 °F 81% 29.60 in 10.0 mi Variable 6.9 mph - 0.00 in   Mostly Cloudy
5:53 PM 43.0 °F 38.8 °F 39.0 °F 86% 29.63 in 10.0 mi ESE 6.9 mph - 0.00 in   Mostly Cloudy
6:46 PM 44.6 °F 40.2 °F 39.2 °F 81% 29.66 in 8.0 mi South 8.1 mph - 0.01 in Rain Light Rain
6:53 PM 44.1 °F 39.0 °F 39.0 °F 82% 29.68 in 9.0 mi South 9.2 mph 18.4 mph 0.01 in Rain Light Rain
7:01 PM 44.6 °F 39.7 °F 39.2 °F 81% 29.67 in 10.0 mi SSE 9.2 mph - 0.00 in   Overcast
7:19 PM 44.6 °F 42.2 °F 39.2 °F 81% 29.68 in 10.0 mi Variable 4.6 mph - 0.00 in   Overcast
7:53 PM 43.0 °F 37.7 °F 39.0 °F 86% 29.72 in 10.0 mi SSE 9.2 mph - 0.01 in   Mostly Cloudy
8:00 PM 42.8 °F 37.0 °F 37.4 °F 81% 29.71 in 10.0 mi South 10.4 mph - N/A   Overcast
8:53 PM 42.8 °F 39.3 °F 37.4 °F 81% 29.73 in 10.0 mi SSE 5.8 mph - N/A   Mostly Cloudy
9:53 PM 39.9 °F 36.7 °F 37.0 °F 89% 29.79 in 10.0 mi ESE 4.6 mph - N/A   Overcast
10:53 PM 37.9 °F 35.5 °F 36.0 °F 93% 29.81 in 10.0 mi East 3.5 mph - N/A   Overcast
11:53 PM 37.9 °F 34.4 °F 35.1 °F 89% 29.84 in 10.0 mi ESE 4.6 mph - N/A   Overcast